Theta_e
321 323 324 326 326 326 327 327 338 345 343 344 341 342 345 342 342 342 337 339 339 338 338 336 334 324 324 330 331 331 331 331
315 318 322 324 325 325 326 326 329 339 344 343 345 341 344 343 342 341 339 336 337 337 337 337 335 326 321 323 330 330 330 330
312 312 314 319 324 324 326 326 326 336 340 342 344 341 340 342 341 341 340 338 335 336 336 337 334 332 325 325 326 326 329 328
312 312 312 318 323 325 325 326 326 326 340 341 341 343 343 343 343 341 340 341 337 335 335 337 335 334 327 323 322 321 319 321
317 317 314 312 320 322 325 326 327 326 340 340 340 340 341 343 341 340 340 341 341 337 337 337 336 335 332 325 323 319 318 319
314 314 317 321 315 316 319 325 327 327 328 338 339 339 341 342 341 339 341 341 338 340 339 337 337 336 333 327 322 318 317 321
306 306 309 311 317 322 326 325 323 327 328 338 337 338 341 340 342 341 340 342 341 340 340 339 338 336 335 331 322 320 321 323
300 300 303 303 306 313 323 328 328 326 328 338 336 337 339 339 340 342 340 340 340 340 340 339 338 337 335 334 327 323 323 326
298 299 300 301 302 308 314 325 329 326 328 329 336 334 335 336 338 339 341 340 338 338 339 338 338 337 335 335 332 325 325 329
298 299 298 299 299 302 305 316 319 323 327 328 333 335 332 332 331 333 336 337 339 336 335 338 338 337 336 334 334 331 328 330
297 298 299 298 298 299 301 305 312 318 322 326 329 331 333 334 333 334 335 334 335 338 337 337 337 337 337 335 335 334 331 330
298 297 298 298 299 298 298 300 301 310 310 317 323 328 329 331 333 334 336 336 336 337 338 336 338 335 336 336 335 334 334 333
297 297 297 297 297 298 298 300 300 301 302 305 308 312 319 326 328 331 335 336 337 336 338 338 338 336 337 337 336 334 334 333
298 296 296 296 297 297 299 298 298 299 301 301 302 303 306 308 312 315 319 328 334 336 338 337 335 335 336 335 337 336 335 335
297 297 296 295 296 296 296 297 296 297 298 299 300 300 302 302 303 306 309 312 316 330 331 334 335 335 336 336 336 335 336 335
297 297 297 296 296 295 295 295 294 295 296 297 297 299 299 300 301 302 303 304 305 309 318 327 330 334 333 332 332 334 334 335
297 297 297 296 295 295 295 294 295 295 294 294 294 295 297 299 299 299 301 302 301 302 303 309 313 318 320 327 330 331 330 331
297 297 297 296 295 295 294 294 294 294 295 294 295 295 295 294 297 297 297 299 300 301 301 301 303 307 311 315 322 326 329 329
297 296 296 296 295 294 294 293 294 293 293 294 294 295 295 295 295 295 295 295 297 299 299 302 302 302 301 304 306 319 323 324
Wind_Speed
41 38 38 33 36 36 37 41 40 45 44 42 39 42 37 40 42 41 47 50 46 42 38 40 44 43 43 39 36 31 27 24
45 45 42 41 38 33 37 39 37 48 47 45 40 41 41 42 43 44 42 47 49 45 40 40 43 47 47 45 39 35 30 27
46 43 47 52 42 40 36 36 39 40 46 46 47 47 48 46 47 45 44 47 49 50 45 42 48 46 47 47 47 43 33 33
39 43 46 47 43 39 43 39 39 43 48 45 48 40 41 42 42 47 47 46 49 52 52 43 49 50 53 52 51 48 42 40
22 22 37 47 43 43 39 43 40 41 44 45 49 48 43 43 48 46 51 47 47 50 54 50 52 51 52 53 51 49 40 40
28 26 26 25 38 47 48 40 38 40 39 47 47 51 48 43 45 48 47 51 49 51 53 56 57 53 56 56 51 47 43 38
27 28 27 24 18 16 19 41 45 40 40 48 48 50 47 43 41 44 48 48 51 52 54 58 60 61 59 58 53 53 48 43
29 34 33 31 28 19 11 18 34 38 41 40 45 50 49 47 46 43 45 49 51 54 55 59 62 60 60 59 56 57 57 55
41 41 35 39 36 21 11 5 10 12 23 33 41 47 44 46 43 43 43 47 51 53 57 60 62 62 59 57 56 61 59 59
43 48 47 37 35 37 27 8 3 5 15 18 20 32 37 39 41 40 39 41 42 47 52 58 62 64 64 59 54 60 65 64
42 45 52 48 47 36 42 38 23 14 5 10 20 21 23 32 34 40 40 46 47 48 52 56 60 65 64 64 58 55 63 68
44 46 41 43 49 48 51 51 47 34 30 19 11 13 19 24 25 34 38 42 46 49 50 50 61 61 63 66 59 57 60 62
37 38 39 45 43 48 50 52 49 46 43 39 33 24 16 15 17 21 34 40 43 43 49 50 54 58 64 67 62 56 59 62
31 35 37 38 36 39 43 43 41 45 43 43 40 37 34 28 22 17 11 20 33 37 42 47 50 57 64 64 63 55 62 62
30 31 32 33 31 32 28 34 32 34 37 39 41 38 35 33 31 26 21 19 11 26 34 35 42 47 50 56 61 48 62 59
29 28 28 29 27 27 32 31 29 31 33 33 32 37 34 34 31 28 25 25 24 19 14 23 30 41 40 47 50 57 60 62
26 27 27 27 29 26 27 28 28 30 33 29 28 26 28 27 28 20 29 25 23 26 20 16 14 17 18 32 40 46 48 56
26 26 25 26 26 27 27 26 26 24 26 30 29 29 30 28 21 25 25 24 23 22 19 19 16 13 12 11 19 22 26 31
23 24 24 24 23 24 24 26 28 27 27 25 28 28 28 25 25 23 18 17 17 15 13 16 16 18 16 17 11 11 19 22
Wind_Direction
264 263 257 242 238 237 233 228 219 215 211 205 217 194 205 203 202 204 207 205 199 208 198 199 207 206 201 190 196 188 190 187
264 258 261 257 243 245 227 227 229 215 205 208 206 207 200 204 204 203 206 207 204 206 197 203 207 210 210 205 197 187 185 187
273 264 253 256 246 238 241 225 232 224 214 209 205 212 204 205 206 202 202 212 209 204 200 205 210 209 210 203 203 197 186 185
262 260 259 249 249 234 238 233 228 225 212 214 213 212 207 207 204 200 203 207 211 208 207 203 212 213 213 211 210 207 196 197
317 304 262 253 247 248 238 240 226 223 215 210 214 211 213 208 206 206 209 205 211 213 209 202 215 215 218 214 211 209 200 201
352 349 334 336 251 251 254 238 227 223 222 211 212 209 213 209 212 210 204 211 218 215 211 207 214 217 224 220 213 209 209 212
351 355 347 345 319 304 259 243 240 222 223 214 215 212 210 209 207 206 207 207 208 214 216 215 217 219 225 225 215 216 219 222
9 17 9 359 342 315 318 259 229 223 224 215 216 216 214 210 207 202 208 208 209 212 216 220 220 219 226 230 217 216 218 218
31 27 21 12 8 13 310 279 222 206 214 221 216 223 218 215 214 209 208 218 221 223 220 225 227 221 218 228 222 219 218 223
28 32 33 18 17 30 42 53 57 173 197 200 215 224 222 226 227 226 222 221 224 233 231 228 228 228 224 222 227 223 224 226
21 24 30 19 26 24 41 60 65 75 108 191 206 217 216 225 230 227 225 227 227 229 232 229 229 223 226 220 228 227 228 229
15 25 30 20 28 27 37 50 52 74 73 87 124 198 214 222 227 230 230 231 229 227 228 228 224 221 222 222 229 227 226 228
13 16 20 26 20 31 40 49 51 61 61 67 77 89 119 173 191 214 224 227 222 226 226 225 224 222 225 226 227 223 223 226
13 13 18 19 16 26 36 44 45 50 54 57 57 61 67 73 86 104 133 195 218 217 210 220 231 224 216 218 226 231 229 228
9 11 12 17 18 20 27 39 40 50 50 48 51 51 52 52 55 59 72 85 104 191 194 197 196 205 220 231 231 232 232 235
9 12 11 13 13 16 25 31 27 41 49 48 47 48 42 44 46 41 46 55 54 73 125 176 196 202 206 209 213 222 232 232
11 11 10 10 12 19 24 24 30 31 41 46 42 46 51 45 42 31 36 38 26 40 62 81 120 155 172 200 208 215 218 224
3 6 7 4 5 11 20 15 30 29 27 29 36 38 41 39 42 33 26 23 23 18 22 51 57 72 108 140 185 187 201 212
360 359 2 5 6 8 10 19 15 24 24 21 27 29 24 20 33 33 27 18 19 8 3 14 39 40 40 69 56 166 186 201